Wind_Speed
27 31 34 35 33 32 32 31 30 30 30 30 31 31 30 30 28 27 27 26 25 26 25 25 24 23 22 22 22 21 21 20 21 23 23 23 23 23 23 23 24 24 25 25 24 24 23 23 23 24 24 24 24 24 24 24 25 25 26 27 28 28 27 26 25 24 23 21 20 20 21 23 24 25 25 26 26 25 25 26 27 27 28 29 29 30 29
21 22 26 33 37 37 36 35 34 33 32 32 32 32 32 33 31 31 30 28 27 27 27 27 27 26 25 25 25 24 23 22 23 24 25 25 26 26 26 26 26 26 27 27 27 27 27 27 27 27 26 26 26 26 26 26 27 27 27 28 29 29 29 29 29 28 27 26 24 24 24 25 26 27 28 29 30 31 32 33 33 33 33 34 34 33 33
24 21 21 25 32 37 39 38 38 37 36 35 34 34 34 34 34 33 33 32 31 30 29 29 29 29 28 27 27 26 26 26 26 26 27 28 28 29 29 29 29 30 30 30 30 30 30 30 30 29 29 28 28 28 29 29 29 29 29 29 30 30 31 31 32 32 31 30 30 29 29 29 29 30 31 32 33 34 35 36 36 37 38 38 37 37 36
25 25 24 23 25 30 34 37 40 41 41 40 38 37 37 36 36 36 35 35 35 34 33 32 32 32 31 30 30 29 29 29 30 30 30 31 31 32 32 32 33 33 34 34 34 34 33 33 33 32 32 32 32 32 32 32 32 32 32 32 32 33 33 34 34 34 34 34 34 34 34 34 34 34 35 35 36 37 38 39 39 40 40 41 41 40 39
26 26 27 27 26 26 27 27 30 34 38 39 39 39 39 39 39 40 39 39 38 37 37 36 35 35 34 33 33 32 33 33 33 34 34 34 35 35 36 36 36 36 37 37 37 37 37 37 37 37 37 36 36 36 36 36 36 36 36 36 36 37 37 37 37 37 37 37 37 37 37 38 38 38 38 39 39 40 40 41 42 43 43 44 44 44 42
27 26 27 28 29 30 28 23 23 26 27 29 31 32 33 34 36 38 40 41 41 40 40 39 38 37 36 36 36 36 36 36 37 38 39 40 39 39 39 40 39 39 40 39 39 39 39 39 39 38 38 39 39 40 40 40 40 40 40 40 40 41 40 40 40 40 40 40 40 40 40 40 40 40 40 40 40 41 42 43 44 45 46 47 47 47 46
27 26 27 29 30 30 28 25 26 26 26 26 27 27 27 28 30 33 37 40 42 42 42 41 41 40 40 40 40 40 40 41 42 43 43 43 41 40 42 44 44 43 42 39 38 38 39 39 38 39 40 41 42 44 44 45 46 46 46 46 45 45 43 43 42 43 43 43 42 42 42 41 41 41 41 41 41 41 42 43 44 45 47 48 49 49 49
27 27 28 30 30 28 27 27 28 28 28 28 28 28 28 28 28 29 32 35 38 39 40 40 40 41 42 43 44 44 44 45 44 44 43 42 40 40 42 42 40 39 39 39 37 37 38 38 39 40 41 42 43 45 46 47 47 47 48 47 47 46 46 46 46 45 45 45 45 44 44 43 42 42 43 43 43 43 43 44 45 46 47 48 48 49 49
28 28 29 29 28 27 27 27 27 27 28 28 29 29 29 30 30 30 31 31 33 34 34 35 35 36 38 40 42 44 46 46 46 44 43 42 41 41 42 41 40 40 42 43 43 42 41 41 42 43 43 44 45 46 47 48 48 49 50 51 51 52 52 51 50 49 48 47 47 46 46 45 45 45 46 46 46 46 46 47 48 48 48 49 50 50 49
28 29 30 31 30 29 27 26 26 27 27 28 29 30 30 31 32 32 32 32 32 32 33 33 33 33 34 35 37 39 42 43 44 45 46 46 46 47 47 47 47 47 47 47 47 47 47 48 49 50 51 51 52 53 53 54 55 56 57 57 57 57 56 55 54 53 52 50 50 49 49 49 49 49 49 49 49 49 49 49 50 50 50 50 50 50 50
28 28 28 30 31 31 28 27 27 27 27 27 28 29 30 31 32 32 31 31 32 32 33 33 33 34 35 36 36 37 39 40 42 44 45 47 48 49 48 49 49 49 49 50 51 52 53 54 55 56 56 57 57 58 58 59 59 60 59 59 59 59 59 58 58 57 56 55 54 54 53 53 53 53 53 52 52 51 50 50 50 50 50 50 50 50 49
31 29 29 30 32 30 29 30 29 29 30 31 31 32 32 32 33 34 34 34 34 34 34 34 34 35 36 36 36 38 39 40 42 43 45 47 48 49 50 51 52 53 54 55 56 57 58 59 59 59 59 59 59 59 59 60 60 60 60 60 61 61 61 61 61 61 61 60 59 58 58 57 57 56 55 55 53 52 52 51 50 50 50 50 49 48 46
34 33 32 32 32 31 30 31 32 33 34 35 36 36 36 35 35 35 35 36 36 36 36 36 36 36 36 36 36 38 39 40 42 44 46 47 49 51 53 54 55 57 58 58 59 59 60 60 60 60 60 60 60 60 60 61 62 62 62 63 63 64 64 65 65 66 65 65 63 62 61 60 59 58 57 56 55 54 54 53 51 50 49 49 49 48 46
35 36 36 36 36 34 33 33 33 34 36 38 38 37 35 34 35 35 35 35 36 36 37 37 38 38 38 38 38 39 39 40 41 43 45 47 49 51 53 55 56 58 58 59 60 60 61 61 61 61 61 62 62 62 63 64 65 65 66 66 67 67 67 68 68 68 68 67 66 65 63 62 61 60 58 57 56 55 55 54 52 51 50 50 49 48 46
36 36 37 38 39 38 35 34 32 33 35 36 36 34 34 34 35 35 36 36 37 38 38 39 40 40 41 41 41 42 42 42 43 44 45 47 48 50 53 54 56 57 59 60 61 61 62 62 62 63 63 63 64 64 65 66 67 67 68 68 69 69 69 69 69 69 68 68 67 65 63 62 61 61 60 58 57 56 54 53 53 53 53 54 53 50 48
36 35 36 38 39 39 38 36 35 34 35 35 36 37 37 38 38 39 39 39 39 40 40 41 41 42 43 43 44 45 46 46 47 48 48 49 50 52 53 54 55 57 58 59 60 61 61 62 62 63 63 64 65 65 66 67 67 68 68 69 69 69 69 69 69 69 68 68 68 67 65 64 63 62 61 61 59 58 56 54 53 53 54 55 56 56 53
39 38 38 39 40 40 41 41 41 42 42 43 43 44 44 44 43 43 43 42 42 42 42 43 43 44 45 45 46 47 48 49 50 51 51 52 53 54 55 56 57 58 59 59 60 61 62 63 63 63 63 64 64 64 64 65 65 66 66 66 67 67 67 68 68 68 67 66 66 66 65 65 64 62 62 61 60 59 58 56 54 54 53 54 55 56 57
40 41 41 41 41 41 42 43 44 46 47 47 46 46 45 45 45 44 44 44 44 43 44 44 44 45 46 47 48 49 50 50 51 52 53 53 54 55 56 57 57 58 59 59 60 60 61 60 60 60 60 60 60 60 61 61 62 63 63 64 65 65 65 66 66 66 66 65 64 63 63 62 62 61 60 59 59 58 58 56 55 55 54 54 55 55 56
37 38 39 39 40 41 41 42 43 44 44 44 44 43 42 42 42 42 43 43 43 43 43 43 44 45 45 46 47 48 49 50 50 51 51 52 53 53 54 55 55 56 56 56 57 57 57 56 56 56 57 58 58 59 60 61 62 62 63 64 64 64 64 64 65 65 65 65 65 64 63 62 61 60 60 59 59 58 57 56 55 54 53 52 53 54 54
32 33 34 35 37 38 38 39 40 40 40 41 41 40 40 40 40 40 40 41 41 41 41 41 42 42 43 43 44 45 46 46 47 47 48 49 49 51 51 52 53 53 53 53 54 54 54 54 54 55 56 58 59 60 60 60 60 60 60 60 60 61 61 61 61 62 63 63 63 64 64 64 64 62 61 61 61 59 58 57 56 54 51 50 51 51 49
26 28 29 30 31 32 33 34 35 35 36 36 36 37 37 37 37 38 38 38 38 39 39 39 40 40 40 41 41 42 42 43 43 44 45 46 47 48 49 50 51 51 51 52 53 54 55 55 56 58 59 60 60 59 58 57 57 57 57 57 57 58 59 59 60 60 61 62 62 62 63 63 64 63 61 61 61 61 60 59 59 56 53 51 50 48 45
21 23 24 25 26 27 28 29 30 30 31 31 32 32 33 33 34 35 35 36 36 36 36 37 37 38 38 39 39 40 41 42 42 44 45 46 48 49 50 51 52 53 54 55 57 58 59 60 60 60 59 59 58 57 57 57 57 57 57 57 58 59 60 60 61 61 62 62 63 64 64 64 64 63 62 61 61 61 60 60 59 58 56 53 49 45 43
16 17 18 19 20 22 22 23 24 25 26 27 28 29 29 31 31 32 33 35 36 37 37 38 38 39 40 40 41 43 44 46 47 48 50 51 52 53 54 55 56 57 57 58 58 59 59 58 57 56 55 55 56 56 56 55 55 56 56 56 57 57 58 60 61 61 62 63 63 64 65 65 66 65 64 63 63 61 60 59 59 58 58 56 54 52 52
14 15 15 15 16 17 18 19 20 21 22 23 24 25 26 27 28 29 31 32 34 35 36 37 39 40 41 43 44 46 47 48 49 50 51 51 52 52 53 53 53 53 53 53 53 53 53 53 52 51 50 50 49 48 47 47 47 48 48 48 48 49 49 51 52 54 55 57 58 60 61 62 63 64 64 64 65 64 62 60 59 59 59 58 57 58 60
16 16 16 17 17 18 18 19 19 20 20 21 22 23 23 24 25 26 27 28 30 31 32 33 35 36 37 39 40 41 43 44 45 45 46 46 46 46 46 47 47 47 48 48 48 48 48 46 44 42 40 39 38 37 37 37 38 38 38 38 38 38 39 41 42 44 46 47 48 49 51 53 55 58 59 60 62 63 63 62 61 60 59 58 58 59 60
16 17 18 18 19 19 20 20 20 21 21 22 22 23 23 24 25 26 27 28 29 30 31 32 33 34 35 36 37 38 39 40 40 40 40 41 41 41 41 41 41 41 41 41 41 39 37 34 31 30 30 30 30 31 31 31 31 30 30 30 29 30 31 33 35 38 40 42 42 43 43 45 46 49 52 54 55 57 60 61 61 61 60 59 58 58 59
16 16 17 18 19 19 20 20 21 22 22 23 23 24 24 25 25 26 26 27 28 29 30 30 31 32 32 33 34 35 35 36 35 35 35 36 35 35 34 33 32 32 31 30 29 27 24 22 22 23 25 25 25 25 25 25 24 23 22 22 23 25 27 29 31 32 35 37 39 41 41 41 41 42 45 48 49 50 51 54 55 57 59 60 57 54 55
15 15 16 17 17 18 19 19 20 21 22 22 23 23 23 24 24 25 25 26 26 27 27 28 28 29 29 30 31 32 32 31 31 30 29 28 26 25 23 22 21 21 21 20 18 17 16 17 19 20 20 20 20 21 20 19 18 18 20 22 25 27 29 30 32 33 34 36 37 39 40 41 40 39 41 44 45 45 44 45 47 50 54 57 57 54 51
15 15 16 17 17 17 18 19 20 20 21 21 21 22 22 22 22 23 23 23 24 24 24 25 26 27 27 28 29 28 27 25 23 21 19 16 15 14 14 14 15 15 14 14 13 12 12 13 15 15 16 18 19 18 17 16 17 20 23 25 27 29 30 32 34 36 37 38 39 39 40 40 40 38 38 40 42 41 40 40 42 44 47 52 56 57 53
15 15 16 17 17 17 18 18 19 20 20 20 20 20 20 20 21 21 21 22 22 22 23 23 24 25 25 25 24 22 19 16 13 11 9 8 9 11 11 11 12 12 11 11 11 10 10 10 12 14 16 18 18 17 17 18 21 23 25 26 28 30 32 34 37 38 38 38 38 39 39 39 38 36 34 36 39 40 38 37 38 40 42 47 52 55 54
15 16 17 17 17 17 18 18 19 20 20 19 19 19 19 20 20 20 20 20 21 21 21 21 21 21 20 19 17 14 11 9 8 7 6 7 10 11 11 10 10 11 11 11 10 9 9 9 12 15 17 16 15 16 17 20 22 23 24 26 28 30 33 36 38 38 35 32 31 32 33 34 33 32 31 32 35 36 35 34 34 35 38 41 45 50 54
16 17 17 17 18 18 18 19 19 20 19 19 18 19 19 19 19 19 19 19 20 19 19 18 17 16 15 14 12 9 8 8 7 6 6 9 10 9 8 8 8 9 10 10 11 10 9 9 12 15 15 14 14 14 16 18 20 21 23 25 28 31 33 37 38 34 27 23 23 24 25 27 28 26 26 29 31 32 32 31 31 32 34 35 38 45 52
16 17 18 18 18 19 19 19 20 20 19 19 18 18 18 18 18 18 18 19 18 17 15 14 13 13 12 11 11 10 9 8 7 6 7 8 8 7 6 5 6 7 9 10 11 10 9 10 12 13 13 12 12 13 14 15 17 20 22 24 27 29 32 36 36 29 20 17 17 18 19 21 22 22 23 26 27 27 28 28 28 30 31 31 33 38 46
16 17 18 19 19 19 19 19 20 20 19 19 18 18 18 18 18 18 18 17 16 14 12 11 11 11 11 12 12 12 11 10 8 7 7 7 6 5 4 4 5 7 8 9 9 9 8 8 10 11 12 12 13 13 13 14 16 19 21 23 25 26 30 35 34 25 16 13 13 12 13 15 18 20 21 22 22 22 23 24 26 27 28 30 32 34 38
15 17 18 19 19 19 19 20 20 20 19 19 18 18 17 17 17 17 16 15 13 11 10 10 10 10 11 13 13 13 12 11 8 7 6 6 5 4 2 4 5 7 8 10 10 8 6 5 7 9 12 13 14 14 14 14 16 18 20 21 23 23 27 33 33 25 14 10 9 8 10 12 16 19 19 19 18 18 19 20 21 21 22 24 29 33 35
16 17 18 19 19 19 19 19 20 19 19 18 18 17 17 17 16 16 15 14 12 10 10 10 10 10 12 13 13 14 13 11 8 6 6 6 5 4 2 4 6 7 8 10 11 10 8 8 9 11 13 13 14 14 14 14 16 17 18 19 21 21 24 29 32 26 15 7 4 3 6 12 16 17 17 17 16 16 16 17 18 18 18 20 24 29 32
16 17 17 18 18 19 19 19 19 19 18 18 17 17 16 16 16 15 14 12 11 10 10 10 10 10 11 11 12 13 14 13 9 7 7 7 7 6 5 5 6 7 9 10 11 12 12 13 13 14 13 13 12 12 13 14 15 16 16 17 19 20 22 25 30 29 20 9 2 2 4 9 15 17 17 18 18 18 18 19 20 21 22 23 23 24 27
16 17 17 17 18 18 18 19 19 18 18 17 17 16 16 15 15 14 13 12 12 11 10 10 10 10 10 10 10 12 14 14 10 8 8 7 7 8 8 8 8 8 9 10 11 12 12 13 14 14 13 12 12 12 12 13 13 14 15 16 17 19 20 21 25 28 24 15 6 4 4 5 9 13 15 17 18 18 19 19 20 21 22 22 23 25 27
16 16 16 17 17 17 18 18 18 18 17 17 16 15 15 14 14 14 13 13 12 12 11 10 10 10 10 10 9 11 14 14 12 10 9 8 7 8 8 9 9 9 9 9 10 10 10 11 12 13 13 13 13 14 14 13 13 13 13 14 15 17 19 19 21 24 25 22 14 7 5 5 6 8 10 12 13 14 15 16 17 18 20 20 20 23 27
15 15 16 16 17 17 17 17 18 17 17 16 16 15 14 14 14 13 13 13 13 13 12 11 10 10 11 11 10 12 14 15 13 12 10 9 8 8 9 10 10 9 8 8 9 9 9 9 10 11 12 13 14 15 15 15 15 14 14 14 14 15 16 17 18 19 22 22 20 15 9 6 5 6 8 9 11 11 13 14 16 17 17 17 15 14 19
15 15 15 16 17 17 17 17 17 17 17 16 16 15 14 13 13 13 14 14 14 14 13 12 11 10 11 11 11 12 14 15 14 13 12 10 10 10 11 11 11 10 8 8 8 9 9 8 9 9 10 11 12 14 14 15 16 17 16 15 15 14 14 15 16 17 18 18 18 17 15 13 11 10 9 8 8 8 10 13 15 14 14 13 11 11 15
15 15 15 16 16 17 17 17 17 17 17 16 16 15 14 13 13 13 14 14 14 14 14 13 12 11 11 11 11 12 13 14 14 14 13 12 11 11 12 12 12 11 9 8 9 9 8 8 8 8 9 9 11 12 13 14 15 16 17 17 17 15 14 13 14 14 15 15 15 14 14 14 14 14 14 14 14 12 12 12 11 11 10 10 9 9 12
16 15 15 15 16 17 17 17 17 17 16 16 16 15 14 14 13 14 14 14 14 15 15 14 13 12 12 12 12 13 14 14 14 14 13 12 12 12 12 12 12 11 10 9 9 8 8 8 8 8 8 8 9 10 11 12 13 14 15 17 17 17 16 15 13 12 12 13 13 12 12 12 12 11 11 12 12 12 11 10 10 10 11 10 9 9 10
16 16 15 15 16 17 17 17 16 16 16 16 16 16 15 15 14 14 14 14 14 14 15 15 14 13 13 13 12 12 13 13 13 13 12 11 11 11 12 12 12 12 11 10 10 9 8 7 7 7 7 7 7 8 8 9 11 12 13 14 15 16 17 17 16 14 12 11 11 11 11 11 11 12 12 11 11 11 10 9 9 10 11 11 11 12 13
17 16 16 16 16 16 16 16 16 16 16 17 17 17 17 16 16 16 15 15 14 14 15 15 15 14 13 12 11 10 10 10 11 12 12 11 11 11 11 12 11 11 11 10 10 9 9 8 8 8 8 8 7 7 7 7 8 9 10 12 12 13 15 16 16 16 15 12 11 10 10 9 9 10 10 10 10 10 10 10 9 9 10 11 11 12 13
18 17 16 16 16 16 15 15 15 16 16 17 18 18 18 17 17 17 17 16 16 15 16 16 15 14 13 12 11 10 9 9 9 10 11 11 11 11 11 11 10 10 9 9 9 9 9 9 9 9 9 9 9 8 8 8 7 7 8 9 10 11 11 12 14 15 15 14 13 11 9 8 7 7 7 7 7 7 8 8 8 8 8 8 8 9 10
18 18 17 16 15 15 15 16 16 16 16 17 18 19 19 19 19 19 19 18 18 17 16 16 16 15 14 13 12 11 10 10 10 10 11 11 12 12 11 11 10 10 9 9 9 9 9 10 10 10 10 10 10 10 10 10 9 9 8 8 8 9 10 10 11 12 12 13 13 13 11 9 8 6 5 4 4 3 3 3 3 3 3 3 4 5 7
18 18 17 16 15 15 16 16 17 17 17 17 18 19 20 20 21 21 21 20 20 19 18 17 17 16 15 14 13 12 12 12 13 13 13 13 13 13 13 13 12 11 11 10 10 10 10 10 10 10 10 11 11 11 11 11 11 10 10 10 9 8 8 8 9 9 10 10 10 11 11 11 10 8 6 5 3 2 0 2 3 4 5 6 7 7 8
18 18 18 17 16 16 16 16 17 18 18 18 18 19 20 21 22 23 23 23 22 22 21 20 19 18 17 16 15 14 14 15 15 15 15 16 16 16 15 15 14 14 13 12 11 11 11 11 11 11 11 12 12 12 12 12 11 11 11 11 11 11 10 9 9 8 8 8 8 8 9 9 9 9 9 7 5 3 2 1 2 4 5 7 7 8 8
18 18 18 18 17 17 16 16 16 18 19 20 19 19 19 20 22 24 26 26 25 24 23 23 22 21 20 19 18 17 17 17 17 18 18 18 18 17 17 17 16 15 14 14 13 13 13 13 12 12 13 13 13 12 12 12 12 12 12 12 12 12 12 11 11 10 10 9 8 7 7 7 7 7 7 7 7 6 5 3 2 1 1 2 3 4 5
17 17 17 17 18 18 17 16 16 17 19 20 21 20 20 20 22 25 27 28 27 27 26 26 25 24 23 23 22 21 20 20 19 19 20 20 20 20 19 18 18 17 17 16 16 16 15 15 14 14 14 14 13 13 13 12 12 12 12 12 13 13 12 12 12 12 11 11 11 10 9 8 7 7 6 6 5 5 5 4 3 2 2 2 2 3 4
15 15 15 16 16 17 17 18 17 17 18 19 21 22 21 21 22 25 27 28 29 29 30 29 28 27 27 26 25 25 24 23 22 22 22 22 22 22 21 21 21 20 20 19 19 18 18 17 17 16 15 14 14 13 13 13 13 13 13 13 13 13 13 13 13 12 12 12 11 11 11 11 11 10 9 9 8 7 7 6 6 5 5 5 5 6 7
Wind_Direction
239 240 240 237 235 235 237 237 237 238 239 239 238 239 238 237 236 237 237 235 236 241 243 242 240 237 237 238 239 243 245 243 242 241 240 240 240 241 242 243 242 242 243 244 244 243 244 245 245 246 246 247 246 246 245 245 245 245 245 246 248 250 252 254 254 256 258 259 259 258 256 255 254 254 255 257 259 262 266 269 272 273 275 277 279 281 282
245 245 244 241 237 235 236 236 235 235 236 237 238 238 239 240 239 239 240 239 238 240 242 241 240 239 239 240 241 243 243 242 240 239 239 240 241 242 243 244 244 243 243 243 243 243 244 245 246 247 248 249 247 246 245 246 246 246 247 247 249 251 254 256 258 260 263 264 264 263 262 262 262 262 261 262 263 265 267 269 271 272 273 275 277 279 280
250 250 251 249 244 239 237 237 236 235 235 236 237 238 240 242 243 243 243 243 241 241 240 239 240 241 242 243 243 242 241 241 240 238 238 239 240 242 243 245 246 246 245 245 246 247 248 250 250 251 250 249 249 248 248 248 249 250 251 252 252 253 255 257 259 261 263 265 266 267 267 267 267 267 266 266 267 267 267 268 269 269 270 271 273 275 276
253 253 254 254 250 245 241 239 239 240 239 237 237 238 239 240 243 244 245 245 244 243 242 240 240 242 243 244 244 243 242 242 242 242 241 241 241 242 243 244 245 246 247 248 249 251 253 255 255 255 255 254 253 253 253 254 254 255 256 256 257 257 257 258 259 260 261 263 265 266 267 268 268 268 268 268 268 268 268 268 269 269 270 271 271 272 272
254 253 255 255 255 253 248 244 244 245 244 243 242 241 241 241 241 242 244 245 245 244 243 241 241 242 243 243 244 245 245 245 246 246 247 246 246 245 245 245 245 245 246 248 250 253 255 257 258 259 259 259 258 258 259 259 260 260 259 259 258 259 259 259 260 261 261 262 264 265 266 267 267 267 267 267 267 267 268 268 268 269 269 270 270 270 270
257 255 255 255 254 253 253 252 250 248 246 246 247 245 244 243 243 244 244 244 245 245 243 242 241 241 242 243 244 245 246 246 247 248 249 249 249 250 251 250 247 246 248 250 252 255 256 257 258 258 258 258 260 262 263 263 264 263 263 262 261 261 261 261 262 263 264 265 266 267 267 267 267 267 266 266 266 267 267 267 267 266 266 266 267 268 268
258 256 253 252 251 251 254 255 253 252 252 251 250 248 244 242 243 246 245 244 243 243 243 242 242 242 242 243 243 244 245 246 248 249 249 250 251 253 255 254 251 248 248 249 252 254 254 254 255 256 258 261 263 264 264 265 265 265 264 264 264 264 264 265 266 268 269 270 270 270 270 270 269 268 267 267 268 268 269 268 267 266 265 265 265 265 266
255 255 253 252 251 252 255 257 255 254 254 252 251 250 246 242 241 243 243 242 242 242 242 242 242 242 242 242 242 241 242 245 248 248 248 250 252 251 250 249 247 244 244 247 250 251 252 253 256 259 261 263 264 264 263 263 264 264 264 264 264 265 266 268 270 271 272 272 272 272 272 272 271 269 269 270 270 271 271 270 268 266 264 264 264 264 264
253 255 255 254 254 252 251 254 256 254 252 250 248 248 247 245 244 243 244 243 243 242 242 242 242 242 242 242 241 239 240 243 245 244 245 247 248 246 243 241 242 243 245 249 250 248 248 251 254 256 258 259 261 262 263 263 264 266 267 267 268 268 269 270 271 271 271 271 272 272 272 272 271 271 271 271 271 272 271 269 267 266 265 265 264 263 263
252 255 256 256 256 253 250 250 253 252 251 250 248 248 247 247 247 247 247 248 248 248 248 247 247 246 245 244 243 241 240 242 242 241 241 242 242 243 243 243 244 246 248 249 250 249 250 253 254 256 258 259 260 262 263 264 266 267 268 269 269 270 270 271 271 271 270 270 270 270 271 271 271 270 270 270 270 271 270 268 267 266 266 265 264 263 262
253 255 256 255 256 255 252 251 250 249 249 249 249 249 248 247 248 249 250 251 252 252 252 252 251 250 250 248 247 246 245 245 245 244 243 243 243 244 246 247 248 249 250 251 253 255 256 258 259 260 260 261 261 262 263 264 266 267 268 269 270 271 271 272 272 272 272 271 271 270 270 270 269 269 269 269 269 268 267 266 266 266 265 264 263 262 261
255 254 254 253 253 254 254 253 252 251 251 252 253 253 252 252 253 253 253 254 254 255 255 255 254 253 252 252 251 250 249 248 248 247 247 246 247 247 248 250 251 252 254 256 257 258 259 260 260 261 261 262 262 263 264 266 267 268 269 271 272 273 273 274 274 274 274 273 273 272 272 271 270 269 268 267 266 265 264 264 265 266 265 264 263 261 259
253 253 253 252 252 254 256 256 255 255 255 255 255 255 254 254 255 255 255 255 256 257 258 258 258 258 258 256 254 252 251 250 249 249 249 249 249 249 250 251 253 254 255 256 257 258 259 260 261 262 263 264 265 266 267 268 269 270 271 272 272 273 274 274 274 275 274 274 274 274 273 272 271 269 268 266 265 263 262 262 263 262 263 263 263 260 258
249 250 251 251 252 253 256 257 256 254 253 252 252 253 253 251 251 251 253 254 256 258 259 260 260 260 260 259 257 255 254 252 250 249 249 249 250 250 251 252 253 255 256 257 258 259 259 260 262 263 264 265 266 267 268 269 270 270 270 271 271 272 272 273 274 274 274 274 274 274 274 273 272 271 269 267 265 263 262 261 259 257 256 257 258 258 257
248 250 250 251 251 252 253 253 252 249 247 247 249 250 249 248 249 250 252 254 256 258 258 259 259 259 259 258 258 257 256 255 254 253 252 252 252 252 252 253 254 255 256 257 258 259 260 261 262 263 264 265 266 267 268 269 269 269 269 270 270 270 271 271 272 272 272 272 272 272 272 272 271 271 270 268 266 264 262 261 259 256 254 253 254 256 258
249 249 250 250 251 251 249 248 245 242 242 245 249 251 252 253 254 255 256 257 257 257 257 258 258 257 257 257 256 256 256 256 256 256 256 256 256 256 256 256 256 256 257 258 259 260 261 261 262 263 264 264 265 266 267 268 268 269 269 269 269 269 270 270 270 270 270 271 271 270 270 270 270 270 269 269 268 266 264 262 260 257 255 254 253 254 256
249 248 249 250 250 250 249 247 245 244 246 250 254 256 259 259 260 260 260 259 259 258 258 258 257 257 257 257 256 256 256 257 257 258 258 259 259 259 259 259 260 260 260 261 262 262 263 263 264 264 265 265 265 266 266 267 267 268 268 268 269 269 269 269 269 269 269 269 269 269 269 268 268 267 267 267 266 266 264 262 260 258 256 255 254 254 254
250 250 249 250 250 250 249 249 249 249 251 254 256 258 260 260 261 261 261 261 260 260 259 259 258 258 258 258 258 259 259 260 260 260 261 261 262 262 262 263 263 264 264 265 265 265 266 266 267 267 267 267 267 267 267 268 268 268 268 268 268 269 269 269 270 270 269 268 267 266 266 265 265 264 264 264 263 263 263 261 259 257 255 255 255 254 254
251 251 251 250 250 250 250 250 250 252 254 255 257 258 259 260 260 261 261 262 262 262 262 261 261 261 261 261 262 262 262 263 263 263 264 264 264 265 265 265 266 266 266 267 267 267 268 268 268 269 269 269 269 269 270 270 270 270 270 270 270 269 269 269 269 269 269 268 268 266 265 263 262 261 261 261 260 260 260 259 258 256 255 254 254 255 255
253 253 252 252 252 251 252 252 252 253 255 256 258 259 259 260 260 261 262 262 263 263 263 263 262 262 262 262 262 262 263 263 263 263 264 264 264 265 266 266 267 268 268 269 269 270 271 271 271 272 272 274 275 275 275 275 274 273 272 272 271 270 269 268 268 267 267 266 266 266 265 264 262 260 258 258 258 257 257 256 255 254 252 250 251 252 254
256 255 254 254 254 254 254 254 255 256 257 258 259 260 261 261 262 263 263 264 265 265 265 266 266 266 266 266 266 266 266 267 267 267 268 268 269 270 270 271 272 273 274 274 275 276 277 277 277 278 279 280 281 280 280 279 278 276 275 274 273 272 271 269 268 267 266 265 264 263 263 262 261 260 258 256 255 255 254 253 253 252 250 248 248 250 252
258 258 257 256 256 256 256 256 257 257 258 258 259 260 260 261 262 263 263 265 266 266 267 267 268 268 268 268 268 268 268 268 268 268 268 269 270 271 272 272 273 274 275 275 276 277 278 279 280 281 282 282 282 281 281 280 279 279 278 277 276 275 273 272 270 269 267 266 265 263 262 261 260 259 258 256 254 252 251 251 251 250 248 245 242 241 243
261 262 261 260 258 258 258 257 256 256 256 256 256 257 257 258 258 259 259 260 261 261 262 262 262 262 263 263 263 264 264 265 266 267 267 268 270 271 272 273 274 275 275 276 277 277 278 279 280 281 281 281 280 280 279 279 278 277 276 276 275 274 273 272 271 269 268 266 265 264 262 261 260 259 257 256 255 252 250 249 248 247 246 243 238 233 232
264 264 264 262 259 258 257 255 255 254 254 254 254 255 255 256 257 258 258 258 259 260 260 261 261 262 262 263 264 265 266 267 269 269 270 271 272 273 274 274 275 275 276 276 276 277 278 279 279 280 279 278 277 276 276 275 275 275 275 275 274 274 273 273 272 271 270 268 266 264 263 261 260 258 256 255 253 252 250 248 246 245 245 243 239 235 232
262 261 261 260 259 259 258 258 258 257 257 257 257 257 257 257 258 258 259 260 261 262 262 263 264 264 265 266 267 267 268 269 270 270 271 272 273 273 273 274 274 274 275 275 276 277 277 278 278 277 275 274 274 275 275 276 277 278 278 278 278 277 276 275 274 273 272 271 269 268 266 263 261 259 257 255 253 251 249 247 244 242 242 242 240 238 235
260 259 258 258 258 259 259 260 260 259 259 259 259 259 259 259 260 260 261 262 263 264 265 265 266 267 267 268 268 269 269 270 271 272 272 273 273 273 274 274 274 275 275 275 276 276 276 276 275 273 274 275 277 278 279 279 279 280 280 281 281 282 281 280 278 276 274 271 269 267 267 266 263 261 258 256 253 251 249 246 243 241 239 238 239 239 238
260 260 259 259 258 258 258 258 258 258 258 258 259 259 260 260 261 262 263 263 264 265 266 267 268 268 269 269 270 270 271 272 273 273 274 274 275 275 276 276 276 276 276 276 276 275 275 274 273 274 275 277 279 280 281 281 281 282 284 286 289 290 290 289 287 284 280 276 270 266 264 264 264 262 258 256 254 252 249 246 243 240 237 235 235 236 239
265 264 263 262 261 259 258 258 257 257 258 258 259 260 261 262 263 263 264 265 266 267 269 271 272 273 273 273 273 274 275 276 277 277 277 277 278 278 279 279 278 276 276 276 274 273 272 272 273 275 278 283 287 288 286 283 282 283 285 289 292 293 293 293 292 290 286 281 275 269 264 261 261 260 258 254 252 251 249 246 242 238 235 232 229 229 231
268 266 265 264 263 261 259 258 257 258 258 259 260 262 263 264 265 266 267 269 271 273 276 277 278 278 278 278 277 278 279 279 278 277 277 277 281 285 285 282 278 276 276 274 272 273 275 277 279 285 293 299 299 294 285 280 280 283 288 292 294 295 296 296 295 293 288 283 276 270 264 260 257 257 256 252 248 247 247 246 243 239 235 231 227 225 223
270 268 266 265 263 262 261 260 260 260 261 262 264 265 266 268 269 270 273 275 277 279 281 282 282 282 280 279 279 279 278 274 268 266 268 281 296 301 296 288 283 284 283 280 279 281 285 289 294 302 305 304 298 287 279 278 282 289 294 298 299 300 300 301 301 299 293 284 275 267 261 256 253 253 252 248 243 241 242 244 243 241 237 231 227 224 220
272 270 269 268 267 266 264 264 264 265 266 267 268 269 269 270 271 274 276 279 281 284 285 284 282 278 275 274 274 270 259 247 240 243 264 293 305 305 302 299 298 297 295 293 293 296 301 306 307 307 306 304 297 287 283 284 289 295 301 304 306 307 307 308 309 306 297 285 274 265 258 252 250 250 248 242 237 237 240 242 242 240 236 231 227 222 217
276 274 272 271 270 270 269 269 269 269 269 270 270 270 271 272 274 277 279 282 285 286 285 281 275 270 266 262 254 239 223 219 226 242 274 298 305 305 305 307 307 307 308 307 306 307 311 309 305 305 308 310 305 298 294 295 299 304 308 311 313 313 314 318 319 314 300 282 271 264 255 248 246 245 240 232 229 231 236 239 238 236 233 228 224 221 217
279 277 276 275 274 273 273 273 272 272 273 273 272 272 272 274 276 279 282 284 286 285 280 272 264 259 254 243 226 213 210 215 227 249 279 296 301 302 305 313 323 329 327 322 317 316 313 303 296 301 312 320 316 310 308 309 312 314 317 318 319 321 325 330 331 323 303 279 268 261 251 244 240 235 226 219 221 227 232 234 233 232 229 223 219 219 217
282 280 279 277 276 276 276 275 275 275 275 275 274 274 274 276 278 281 282 284 283 278 270 261 255 250 241 228 218 215 216 222 233 255 278 289 291 292 305 331 348 350 346 342 337 329 314 298 293 301 316 325 324 319 319 321 323 323 323 323 324 329 336 343 343 334 310 282 267 256 246 237 227 218 211 210 215 223 227 228 229 228 226 220 217 217 218
284 282 280 279 279 278 278 277 276 276 276 275 274 274 275 277 279 281 281 280 277 269 260 255 252 245 233 223 221 224 224 225 236 255 267 270 272 278 317 354 -0 -0 359 357 353 343 329 321 324 329 330 328 323 320 323 327 330 329 327 327 331 338 347 353 355 350 329 296 274 254 238 224 212 203 200 202 207 213 218 221 220 221 223 223 220 217 218
285 284 283 283 283 281 279 277 277 276 275 274 273 274 275 277 279 279 278 275 269 263 257 253 251 244 233 229 234 237 232 226 232 248 251 250 254 266 323 1 4 4 3 359 356 356 1 9 10 2 349 336 325 322 326 331 333 334 333 334 339 346 353 0 4 4 355 327 295 251 218 205 197 192 191 194 199 205 212 213 210 208 215 225 226 222 219
286 286 286 286 286 284 281 278 276 275 274 273 273 273 275 276 277 276 273 267 261 258 256 254 253 248 241 240 246 242 229 220 225 240 245 247 253 264 291 326 347 357 358 357 358 4 10 15 16 10 359 347 337 334 334 335 335 335 337 342 349 354 359 6 13 16 14 9 21 114 176 191 191 189 190 192 197 204 209 211 210 209 211 219 224 220 212
286 286 287 286 285 284 281 279 277 275 273 272 271 271 273 274 274 271 265 259 254 253 255 256 255 250 244 244 245 235 220 214 220 236 245 252 260 268 282 302 319 334 343 349 356 2 5 8 12 11 6 -0 357 354 349 344 340 339 343 349 356 1 5 11 19 24 26 27 43 90 120 158 183 194 200 203 207 212 213 214 215 214 214 218 221 215 205
285 285 285 285 283 282 280 279 277 275 272 269 268 268 270 271 270 266 259 252 249 250 252 254 253 247 237 235 237 231 221 217 221 232 242 252 262 271 284 297 305 312 321 334 345 350 350 355 2 8 10 11 13 12 7 359 352 349 352 357 1 6 10 16 24 30 34 37 43 62 101 132 157 180 194 200 205 209 210 210 212 213 213 213 214 213 210
283 282 283 283 282 281 279 278 277 274 270 266 264 265 267 268 267 263 256 250 248 248 250 253 252 244 232 224 224 225 224 224 228 233 241 251 264 274 283 291 295 299 308 321 330 334 336 342 349 355 -0 8 14 17 15 12 8 5 5 7 8 10 15 21 29 35 39 43 48 55 66 92 131 161 180 191 196 200 203 204 204 203 200 195 191 198 205
280 279 280 281 280 279 277 276 275 272 268 264 262 262 264 266 265 262 255 251 248 249 250 252 253 245 232 221 217 220 225 230 234 238 242 252 263 271 278 285 290 296 302 309 313 317 324 333 340 342 346 354 4 11 13 15 17 17 17 17 17 17 17 23 32 38 43 47 52 58 64 72 83 97 110 125 145 163 175 182 183 181 177 172 168 175 188
278 277 278 279 279 277 276 274 273 270 266 262 261 261 261 262 262 260 255 251 248 248 248 250 250 246 236 227 223 226 231 236 241 243 245 252 260 268 276 283 287 287 288 293 297 302 310 320 329 335 338 344 353 0 4 9 16 21 22 22 23 24 23 25 31 37 44 50 56 63 71 78 83 90 95 99 105 116 133 148 157 162 165 165 165 171 180
278 276 276 278 278 277 275 273 271 269 266 262 260 259 259 258 258 257 254 250 248 247 247 246 244 241 236 232 232 235 238 241 244 245 245 249 255 263 271 276 277 277 279 283 286 288 293 302 313 323 331 338 345 351 356 1 8 17 23 25 27 28 29 30 32 36 42 50 57 65 75 84 89 95 102 109 114 121 132 142 154 168 180 184 185 186 188
278 276 275 276 277 278 277 275 272 269 265 261 258 256 255 253 253 252 251 248 247 246 244 242 238 235 233 231 232 236 240 243 244 245 247 248 252 257 260 263 266 270 274 278 280 281 283 289 300 312 322 329 335 341 347 355 2 9 16 22 26 28 30 31 34 37 41 47 56 63 73 85 94 101 109 118 125 131 137 141 147 158 170 180 186 187 187
277 277 275 274 274 276 277 277 273 268 264 260 256 253 251 250 249 248 247 245 243 243 241 239 234 229 227 226 226 230 236 239 241 243 245 246 246 248 250 253 258 265 272 278 282 286 289 293 301 310 317 323 328 333 338 347 357 6 12 16 20 25 28 30 33 35 38 41 48 58 67 76 88 99 108 116 122 127 132 135 137 141 149 159 168 175 179
275 275 274 273 272 273 274 273 271 267 263 259 256 254 251 248 246 245 244 242 240 240 240 237 232 227 223 221 220 222 228 234 237 238 239 241 242 242 244 248 254 263 272 280 285 290 294 299 304 309 313 318 323 328 333 338 347 357 5 10 14 18 21 26 30 33 36 38 41 47 55 65 75 84 93 101 107 112 119 125 131 136 142 150 161 172 181
274 275 274 273 272 272 272 271 268 265 261 258 256 255 252 248 244 242 242 240 239 239 238 236 231 228 224 221 219 220 223 230 235 236 236 238 242 243 244 247 251 257 264 274 282 287 291 296 300 304 308 312 317 323 327 331 335 341 347 355 4 9 12 15 20 25 30 36 39 42 46 51 58 66 73 76 76 76 87 106 126 140 156 175 195 206 208
274 275 275 274 272 271 271 271 269 265 261 258 256 255 253 248 244 241 240 239 238 237 237 235 232 229 225 222 220 221 224 229 234 237 237 238 241 243 245 247 250 251 255 263 270 276 282 288 293 297 301 305 309 314 318 322 325 330 335 339 345 351 357 2 7 11 16 22 28 34 39 43 46 51 58 65 73 80 195 246 245 242 241 243 245 242 232
275 275 275 274 273 272 271 270 269 266 262 258 256 255 253 249 245 241 239 238 237 237 236 235 232 229 226 223 222 224 226 230 234 236 237 239 240 242 243 246 248 249 251 255 262 269 275 281 286 290 295 299 303 307 311 315 318 322 326 330 333 335 338 342 346 351 358 4 10 15 20 24 28 31 36 42 51 66 91 157 211 228 236 240 241 237 230
275 275 275 275 275 275 273 269 266 264 263 261 258 255 252 249 245 241 239 237 236 236 236 236 234 231 228 226 225 226 230 233 236 237 238 240 241 243 244 246 248 249 250 254 261 268 272 275 279 284 290 295 299 302 305 308 312 316 319 323 325 326 327 329 331 333 337 340 344 349 354 359 3 9 13 17 21 28 36 46 63 130 206 222 227 226 223
274 275 277 278 279 279 277 274 268 263 261 261 260 257 252 247 243 241 240 238 236 235 236 236 235 234 232 229 227 227 230 234 237 238 239 241 242 244 245 246 248 249 251 256 263 268 270 271 274 279 284 289 295 300 303 306 309 312 314 316 319 320 321 321 323 325 326 327 328 328 330 332 333 334 335 336 339 342 346 349 347 336 309 273 251 237 228
277 279 280 280 280 280 279 278 274 268 262 259 259 258 255 250 244 241 240 239 237 235 235 236 236 235 235 234 232 230 230 232 235 238 240 242 243 245 247 249 250 252 255 260 264 267 267 268 269 272 276 281 286 293 299 303 307 309 310 311 313 314 315 317 317 318 318 319 320 320 320 319 318 318 316 313 310 305 301 297 294 288 279 266 255 247 240
Height
5665 5666 5667 5669 5671 5672 5673 5675 5677 5678 5680 5682 5683 5685 5686 5687 5689 5689 5690 5691 5693 5694 5695 5697 5698 5700 5701 5702 5703 5704 5705 5706 5706 5707 5708 5709 5710 5711 5711 5712 5713 5713 5714 5714 5715 5716 5718 5719 5720 5720 5721 5722 5722 5723 5723 5723 5723 5724 5724 5725 5725 5726 5726 5727 5728 5729 5729 5730 5731 5731 5731 5731 5732 5732 5732 5733 5733 5734 5734 5734 5734 5734 5734 5735 5735 5735 5736
5661 5662 5663 5665 5666 5668 5669 5670 5672 5674 5676 5678 5679 5681 5682 5683 5684 5685 5686 5688 5690 5691 5692 5693 5695 5696 5698 5699 5700 5701 5702 5703 5703 5704 5705 5705 5706 5707 5708 5709 5709 5710 5711 5711 5712 5713 5714 5715 5716 5717 5718 5718 5719 5719 5719 5720 5720 5721 5721 5722 5722 5722 5723 5723 5724 5725 5725 5726 5727 5727 5727 5728 5728 5728 5729 5729 5730 5730 5730 5731 5731 5731 5731 5731 5731 5731 5732
5658 5659 5660 5661 5662 5663 5665 5666 5668 5669 5671 5673 5675 5676 5678 5679 5681 5682 5683 5684 5686 5687 5689 5690 5691 5693 5694 5695 5696 5697 5698 5699 5699 5700 5700 5701 5702 5703 5703 5704 5705 5706 5707 5707 5708 5709 5710 5711 5712 5713 5714 5715 5715 5715 5716 5716 5716 5717 5717 5718 5718 5719 5719 5720 5720 5721 5721 5722 5722 5723 5723 5724 5724 5724 5725 5725 5726 5726 5726 5726 5726 5727 5727 5727 5727 5727 5727
5654 5656 5656 5657 5658 5659 5661 5662 5664 5665 5667 5668 5670 5672 5673 5675 5677 5678 5679 5680 5682 5683 5685 5686 5687 5689 5690 5691 5692 5693 5694 5695 5695 5696 5697 5697 5698 5698 5699 5700 5700 5701 5702 5703 5704 5704 5705 5706 5707 5709 5709 5710 5711 5711 5712 5712 5713 5713 5713 5714 5714 5714 5715 5715 5716 5716 5717 5717 5718 5718 5719 5719 5720 5720 5721 5721 5721 5721 5721 5722 5722 5722 5722 5722 5722 5723 5723
5651 5653 5653 5654 5655 5656 5657 5659 5661 5661 5662 5664 5665 5667 5669 5670 5672 5673 5674 5676 5677 5679 5680 5682 5683 5684 5686 5687 5688 5689 5690 5691 5692 5692 5693 5693 5694 5694 5694 5695 5696 5696 5697 5698 5699 5699 5700 5701 5702 5703 5704 5705 5705 5706 5706 5707 5708 5708 5709 5709 5709 5709 5710 5710 5711 5711 5712 5713 5713 5713 5714 5714 5715 5715 5716 5716 5716 5716 5716 5716 5717 5717 5717 5717 5717 5717 5718
5648 5649 5650 5651 5651 5652 5654 5657 5658 5657 5658 5660 5661 5663 5664 5665 5667 5668 5670 5672 5673 5674 5675 5677 5678 5679 5681 5682 5683 5685 5686 5687 5687 5688 5688 5688 5689 5690 5690 5691 5692 5692 5692 5693 5694 5694 5695 5696 5696 5697 5698 5699 5699 5700 5700 5701 5701 5702 5703 5703 5703 5704 5704 5705 5705 5706 5706 5707 5708 5708 5709 5709 5709 5710 5710 5711 5711 5711 5711 5711 5711 5712 5712 5712 5712 5712 5712
5644 5645 5647 5647 5647 5649 5651 5653 5653 5654 5655 5656 5657 5658 5659 5660 5662 5663 5665 5667 5668 5669 5670 5672 5673 5674 5675 5677 5678 5679 5681 5682 5683 5682 5682 5683 5684 5685 5685 5685 5686 5688 5688 5689 5689 5690 5690 5691 5691 5692 5692 5693 5693 5694 5694 5694 5695 5695 5696 5697 5697 5698 5698 5699 5699 5700 5700 5700 5701 5702 5702 5703 5703 5703 5704 5704 5705 5705 5706 5706 5706 5706 5706 5706 5706 5706 5706
5640 5641 5642 5643 5644 5647 5648 5648 5649 5650 5651 5652 5653 5654 5655 5656 5658 5659 5660 5662 5663 5664 5665 5667 5668 5669 5670 5671 5672 5674 5675 5676 5678 5678 5678 5679 5680 5681 5680 5680 5681 5683 5684 5684 5685 5685 5685 5686 5686 5687 5687 5687 5686 5686 5687 5687 5688 5688 5689 5690 5691 5692 5692 5693 5693 5693 5693 5694 5694 5695 5695 5696 5696 5696 5697 5698 5698 5699 5700 5700 5700 5700 5700 5700 5700 5700 5700
5636 5637 5638 5639 5641 5642 5643 5644 5645 5646 5647 5648 5649 5650 5651 5652 5654 5655 5656 5657 5658 5659 5660 5662 5663 5664 5665 5666 5667 5668 5669 5671 5673 5674 5675 5676 5676 5676 5676 5676 5677 5677 5678 5678 5679 5680 5679 5680 5680 5680 5681 5680 5679 5679 5680 5681 5681 5682 5682 5683 5684 5684 5685 5686 5686 5686 5687 5687 5687 5687 5688 5689 5689 5690 5690 5691 5691 5692 5692 5693 5694 5694 5694 5694 5694 5694 5694
5632 5633 5634 5635 5636 5637 5639 5640 5641 5641 5642 5643 5644 5645 5646 5648 5649 5650 5651 5652 5653 5654 5655 5657 5658 5659 5659 5660 5662 5663 5665 5666 5667 5668 5669 5669 5669 5669 5670 5670 5670 5670 5671 5671 5672 5673 5673 5673 5673 5673 5674 5674 5674 5674 5674 5674 5674 5675 5675 5675 5676 5676 5677 5677 5678 5678 5679 5679 5680 5680 5681 5681 5682 5682 5683 5684 5684 5685 5685 5685 5686 5686 5687 5687 5687 5687 5687
5628 5629 5630 5631 5631 5632 5634 5636 5636 5637 5638 5638 5639 5641 5642 5643 5644 5645 5646 5647 5648 5649 5650 5651 5652 5653 5653 5655 5657 5658 5659 5660 5661 5662 5663 5663 5663 5663 5663 5663 5664 5664 5664 5665 5665 5665 5665 5666 5666 5667 5667 5667 5667 5667 5667 5667 5667 5667 5667 5667 5667 5668 5668 5668 5669 5669 5670 5671 5671 5672 5673 5673 5674 5675 5675 5676 5677 5677 5677 5678 5678 5679 5679 5680 5680 5681 5681
5623 5625 5626 5626 5626 5627 5629 5630 5631 5633 5633 5634 5635 5636 5637 5639 5639 5640 5641 5642 5643 5644 5645 5646 5647 5647 5647 5650 5652 5652 5653 5654 5655 5656 5656 5657 5657 5657 5657 5657 5657 5657 5657 5657 5657 5658 5658 5658 5659 5659 5659 5660 5660 5660 5660 5660 5659 5659 5659 5659 5659 5659 5659 5659 5660 5660 5661 5662 5662 5663 5664 5664 5665 5666 5667 5668 5669 5669 5670 5670 5670 5671 5671 5672 5673 5674 5674
5619 5619 5620 5620 5621 5622 5624 5625 5626 5628 5628 5629 5630 5631 5633 5634 5634 5634 5635 5636 5637 5638 5639 5640 5641 5641 5642 5644 5645 5646 5647 5648 5648 5649 5650 5650 5651 5651 5651 5650 5650 5650 5650 5650 5650 5650 5650 5650 5651 5651 5651 5652 5652 5652 5652 5651 5650 5651 5651 5651 5651 5651 5651 5651 5651 5651 5651 5652 5653 5653 5654 5654 5655 5657 5658 5659 5660 5661 5662 5662 5663 5664 5664 5665 5665 5666 5667
5613 5614 5615 5615 5616 5617 5619 5620 5622 5623 5623 5623 5623 5625 5627 5628 5628 5629 5630 5631 5631 5632 5633 5634 5635 5635 5636 5638 5638 5639 5640 5641 5641 5642 5643 5643 5643 5644 5643 5643 5643 5642 5642 5642 5642 5642 5642 5643 5643 5643 5644 5644 5644 5643 5643 5642 5642 5642 5642 5642 5642 5642 5642 5642 5642 5642 5642 5643 5643 5644 5644 5645 5645 5646 5648 5650 5651 5652 5653 5654 5655 5656 5657 5658 5658 5659 5660
5608 5609 5610 5610 5611 5613 5614 5615 5616 5617 5617 5617 5619 5620 5621 5622 5623 5624 5625 5625 5626 5627 5627 5628 5629 5629 5630 5631 5632 5632 5633 5633 5634 5634 5635 5635 5636 5636 5636 5636 5636 5635 5635 5635 5635 5635 5635 5636 5636 5636 5636 5636 5636 5635 5634 5634 5633 5633 5634 5634 5634 5634 5634 5633 5633 5633 5633 5633 5634 5635 5635 5636 5636 5636 5638 5639 5641 5643 5644 5646 5647 5648 5649 5650 5651 5652 5652
5603 5604 5604 5604 5605 5607 5608 5609 5611 5611 5611 5612 5613 5614 5615 5615 5617 5618 5619 5620 5621 5621 5622 5622 5623 5623 5624 5624 5625 5625 5626 5626 5627 5627 5628 5628 5628 5628 5628 5628 5628 5628 5627 5627 5627 5627 5628 5628 5628 5628 5628 5628 5628 5627 5626 5625 5625 5625 5624 5624 5624 5624 5624 5624 5623 5624 5624 5624 5624 5625 5626 5626 5627 5627 5628 5629 5631 5633 5635 5637 5638 5640 5641 5642 5643 5644 5645
5597 5597 5598 5599 5600 5601 5602 5603 5605 5605 5605 5606 5607 5607 5608 5609 5610 5611 5612 5613 5614 5614 5615 5616 5616 5616 5617 5617 5618 5618 5619 5619 5620 5620 5620 5621 5620 5620 5620 5620 5620 5620 5620 5620 5620 5619 5619 5619 5620 5620 5620 5619 5619 5618 5617 5616 5616 5615 5615 5615 5614 5614 5614 5613 5613 5614 5614 5614 5615 5615 5616 5617 5617 5618 5619 5620 5621 5622 5625 5627 5629 5631 5632 5634 5635 5636 5637
5590 5591 5592 5593 5594 5595 5596 5597 5598 5598 5599 5599 5600 5601 5601 5602 5603 5603 5604 5605 5606 5607 5608 5608 5609 5609 5610 5610 5610 5611 5611 5612 5612 5613 5613 5613 5612 5612 5611 5611 5611 5611 5611 5611 5611 5610 5610 5610 5611 5611 5610 5609 5609 5608 5608 5607 5607 5606 5605 5605 5605 5605 5604 5603 5603 5603 5603 5604 5605 5605 5606 5607 5608 5609 5610 5611 5612 5613 5615 5617 5619 5621 5623 5625 5626 5627 5628
5584 5585 5586 5587 5588 5589 5590 5591 5592 5592 5593 5593 5594 5594 5595 5595 5596 5597 5597 5598 5599 5600 5600 5601 5601 5602 5602 5603 5603 5603 5604 5604 5605 5605 5605 5604 5604 5603 5603 5603 5603 5603 5603 5603 5602 5602 5602 5603 5603 5602 5601 5600 5600 5599 5598 5598 5597 5596 5595 5595 5594 5594 5594 5593 5593 5592 5592 5592 5593 5594 5595 5596 5598 5599 5600 5601 5603 5604 5606 5608 5610 5612 5615 5617 5618 5619 5620
5579 5580 5581 5581 5582 5583 5584 5585 5586 5586 5587 5587 5588 5588 5589 5589 5590 5590 5591 5592 5592 5593 5593 5593 5594 5595 5595 5596 5596 5596 5596 5597 5597 5597 5597 5597 5596 5595 5595 5595 5595 5595 5595 5594 5594 5593 5593 5594 5593 5593 5592 5591 5590 5589 5588 5587 5586 5585 5585 5584 5583 5583 5582 5581 5582 5581 5581 5581 5581 5582 5582 5583 5585 5588 5590 5592 5592 5594 5597 5598 5600 5603 5607 5609 5610 5611 5613
5575 5575 5576 5577 5577 5578 5579 5579 5580 5581 5581 5582 5582 5582 5583 5583 5584 5584 5585 5585 5586 5586 5587 5587 5587 5587 5588 5589 5589 5589 5589 5589 5590 5590 5589 5589 5588 5588 5587 5587 5587 5587 5587 5586 5586 5585 5585 5584 5584 5583 5582 5581 5580 5579 5577 5576 5575 5574 5574 5573 5572 5571 5570 5570 5570 5569 5569 5569 5569 5569 5570 5571 5572 5575 5579 5581 5582 5583 5585 5587 5590 5594 5598 5600 5602 5606 5608
5571 5571 5572 5573 5573 5573 5574 5575 5575 5576 5576 5577 5577 5577 5578 5578 5578 5579 5579 5580 5580 5580 5581 5581 5581 5581 5582 5582 5582 5582 5582 5583 5583 5583 5582 5582 5581 5581 5580 5580 5580 5580 5580 5579 5578 5577 5576 5576 5575 5574 5573 5572 5570 5568 5567 5566 5564 5564 5563 5562 5562 5560 5559 5558 5558 5558 5558 5558 5558 5557 5558 5559 5560 5562 5566 5569 5571 5573 5574 5577 5580 5584 5587 5590 5595 5599 5600
5568 5568 5569 5569 5569 5570 5570 5570 5571 5571 5572 5572 5572 5573 5573 5573 5574 5574 5574 5575 5575 5575 5576 5576 5576 5576 5576 5577 5577 5577 5576 5576 5576 5576 5576 5575 5575 5574 5574 5573 5573 5573 5572 5571 5570 5569 5568 5568 5567 5567 5565 5563 5561 5560 5558 5557 5555 5554 5553 5553 5552 5551 5549 5547 5547 5546 5546 5547 5546 5546 5546 5547 5548 5550 5554 5556 5558 5561 5564 5567 5570 5574 5576 5580 5584 5588 5590
5566 5566 5566 5566 5566 5566 5566 5567 5567 5567 5568 5568 5568 5568 5569 5569 5569 5570 5570 5570 5570 5570 5571 5571 5571 5571 5571 5571 5571 5571 5570 5570 5570 5569 5569 5569 5568 5567 5567 5566 5566 5565 5564 5564 5563 5562 5561 5561 5560 5559 5557 5555 5553 5552 5550 5549 5548 5547 5545 5544 5543 5542 5541 5539 5537 5536 5536 5535 5535 5535 5535 5536 5536 5538 5541 5543 5545 5548 5553 5557 5560 5563 5566 5569 5573 5577 5579
5563 5563 5563 5563 5563 5563 5563 5563 5563 5564 5564 5564 5564 5565 5565 5565 5565 5566 5566 5566 5566 5566 5566 5566 5566 5566 5565 5565 5565 5565 5564 5564 5563 5563 5562 5562 5561 5561 5560 5560 5559 5558 5557 5556 5556 5555 5555 5554 5553 5551 5549 5547 5546 5545 5544 5543 5542 5540 5539 5537 5536 5535 5533 5532 5530 5528 5527 5526 5526 5526 5525 5526 5526 5527 5529 5532 5533 5536 5540 5544 5548 5552 5556 5559 5563 5566 5569
5560 5560 5560 5560 5560 5560 5560 5560 5560 5560 5560 5560 5561 5561 5561 5561 5561 5562 5562 5562 5561 5561 5561 5561 5561 5561 5560 5560 5559 5559 5558 5558 5557 5557 5556 5556 5555 5555 5554 5553 5552 5551 5550 5550 5549 5549 5548 5548 5546 5544 5543 5542 5541 5540 5539 5538 5536 5535 5533 5532 5530 5529 5527 5525 5523 5522 5520 5519 5518 5518 5517 5517 5518 5519 5520 5521 5523 5525 5528 5532 5536 5541 5545 5549 5553 5557 5560
5557 5557 5557 5556 5557 5557 5557 5557 5557 5556 5556 5557 5557 5557 5557 5557 5557 5557 5557 5557 5557 5557 5557 5556 5556 5556 5555 5554 5554 5553 5552 5552 5552 5551 5550 5550 5549 5549 5548 5547 5546 5546 5545 5544 5544 5544 5543 5543 5541 5539 5538 5538 5537 5535 5534 5533 5531 5530 5529 5527 5526 5524 5522 5520 5518 5516 5514 5512 5511 5510 5510 5509 5510 5511 5511 5512 5514 5516 5518 5521 5525 5529 5534 5540 5546 5549 5552
5554 5554 5554 5553 5553 5553 5553 5553 5553 5553 5553 5553 5553 5553 5553 5553 5553 5553 5553 5553 5552 5552 5552 5551 5551 5550 5550 5549 5548 5547 5547 5547 5546 5545 5545 5544 5544 5543 5543 5543 5542 5541 5541 5540 5540 5540 5539 5539 5537 5536 5535 5534 5532 5531 5530 5528 5527 5526 5525 5523 5521 5519 5517 5514 5512 5510 5507 5505 5503 5502 5502 5502 5502 5503 5503 5505 5506 5508 5511 5513 5516 5519 5523 5530 5536 5539 5543
5551 5551 5551 5550 5550 5550 5550 5550 5549 5549 5549 5549 5550 5550 5550 5549 5549 5549 5549 5548 5548 5548 5547 5546 5546 5545 5544 5543 5542 5542 5542 5542 5541 5541 5541 5541 5541 5540 5540 5539 5539 5538 5538 5537 5537 5537 5536 5535 5534 5532 5531 5530 5529 5527 5526 5525 5524 5523 5521 5519 5517 5514 5511 5508 5505 5502 5500 5497 5495 5494 5493 5494 5495 5496 5496 5498 5500 5502 5504 5506 5508 5511 5515 5520 5525 5529 5536
5548 5548 5548 5547 5547 5547 5547 5546 5546 5546 5546 5546 5546 5546 5546 5546 5545 5545 5544 5544 5544 5543 5542 5542 5541 5540 5539 5538 5538 5538 5538 5538 5538 5538 5539 5539 5538 5538 5537 5537 5536 5535 5535 5534 5534 5534 5533 5532 5530 5529 5528 5527 5526 5525 5524 5522 5521 5519 5517 5515 5512 5509 5506 5502 5499 5495 5491 5487 5485 5484 5485 5486 5487 5488 5490 5491 5493 5496 5498 5499 5502 5505 5508 5512 5516 5522 5528
5545 5545 5545 5544 5544 5544 5543 5543 5543 5543 5543 5543 5543 5543 5542 5542 5541 5541 5541 5540 5540 5539 5538 5538 5537 5536 5535 5535 5535 5535 5536 5536 5536 5537 5537 5537 5537 5536 5535 5534 5534 5533 5532 5532 5531 5531 5530 5529 5527 5527 5526 5525 5523 5522 5521 5519 5518 5516 5514 5511 5508 5504 5500 5496 5492 5486 5481 5478 5476 5476 5476 5478 5480 5482 5484 5485 5488 5490 5493 5495 5497 5499 5502 5505 5509 5515 5520
5542 5542 5541 5541 5541 5540 5540 5540 5540 5539 5539 5540 5539 5539 5539 5538 5538 5538 5537 5537 5536 5535 5535 5534 5533 5533 5533 5533 5533 5533 5534 5535 5535 5536 5535 5535 5535 5534 5533 5532 5532 5531 5530 5529 5528 5528 5527 5526 5525 5525 5524 5522 5521 5519 5518 5516 5515 5513 5510 5507 5503 5500 5495 5490 5484 5478 5473 5471 5470 5470 5471 5472 5475 5477 5478 5480 5483 5486 5488 5491 5493 5495 5497 5500 5504 5509 5514
5539 5538 5538 5537 5537 5537 5537 5536 5536 5536 5536 5536 5536 5536 5535 5535 5535 5534 5534 5533 5533 5532 5531 5531 5530 5530 5531 5531 5531 5532 5533 5533 5534 5534 5534 5534 5533 5532 5532 5531 5530 5529 5528 5527 5526 5526 5525 5524 5524 5523 5522 5520 5518 5517 5515 5514 5512 5509 5507 5504 5500 5496 5491 5485 5478 5472 5468 5467 5467 5467 5467 5468 5470 5472 5474 5477 5480 5483 5485 5487 5489 5491 5493 5496 5500 5504 5508
5536 5535 5535 5534 5534 5534 5533 5533 5533 5533 5533 5533 5532 5532 5532 5532 5531 5531 5530 5530 5530 5529 5529 5528 5528 5528 5529 5529 5530 5531 5531 5532 5532 5533 5532 5532 5532 5531 5530 5529 5528 5528 5527 5526 5525 5524 5524 5523 5522 5521 5519 5518 5516 5515 5513 5511 5509 5507 5504 5501 5498 5493 5488 5482 5475 5469 5466 5465 5464 5464 5464 5465 5467 5469 5472 5475 5478 5480 5483 5485 5486 5488 5490 5493 5496 5500 5502
5534 5533 5532 5531 5531 5531 5530 5530 5529 5529 5529 5529 5529 5529 5529 5528 5528 5528 5527 5527 5527 5526 5526 5526 5526 5527 5527 5528 5528 5529 5530 5530 5531 5531 5531 5531 5531 5530 5529 5528 5527 5527 5526 5525 5524 5523 5522 5521 5520 5519 5517 5516 5515 5513 5511 5509 5507 5505 5502 5499 5496 5492 5487 5481 5474 5468 5464 5463 5463 5463 5463 5464 5466 5468 5470 5473 5476 5479 5481 5483 5485 5487 5489 5492 5494 5496 5498
5530 5530 5529 5528 5528 5527 5527 5527 5526 5526 5526 5526 5526 5526 5526 5525 5525 5525 5524 5524 5524 5524 5524 5524 5524 5525 5525 5526 5527 5527 5528 5529 5529 5530 5530 5529 5529 5529 5528 5527 5527 5526 5525 5524 5523 5522 5520 5519 5518 5517 5516 5515 5513 5512 5510 5508 5506 5504 5501 5498 5495 5491 5487 5481 5475 5469 5465 5463 5463 5463 5463 5464 5466 5468 5471 5474 5476 5479 5481 5483 5484 5487 5489 5491 5492 5493 5496
5527 5526 5526 5525 5525 5524 5524 5524 5523 5523 5523 5523 5523 5523 5523 5522 5522 5522 5522 5522 5522 5522 5522 5522 5523 5523 5523 5524 5525 5525 5526 5527 5528 5528 5528 5528 5528 5527 5527 5526 5526 5525 5524 5523 5522 5521 5519 5518 5517 5516 5515 5514 5512 5510 5509 5507 5505 5502 5500 5497 5494 5491 5487 5482 5477 5471 5467 5465 5464 5464 5464 5466 5467 5469 5471 5474 5476 5479 5480 5482 5483 5485 5487 5489 5490 5491 5494
5524 5523 5523 5522 5521 5521 5521 5520 5520 5520 5520 5520 5520 5520 5520 5519 5519 5519 5519 5519 5520 5520 5520 5521 5521 5521 5522 5522 5523 5523 5524 5525 5526 5526 5526 5526 5526 5526 5526 5525 5524 5524 5523 5522 5521 5520 5519 5518 5517 5516 5515 5514 5512 5510 5508 5506 5504 5502 5499 5497 5494 5491 5488 5484 5480 5475 5471 5468 5466 5466 5467 5468 5469 5470 5472 5474 5476 5477 5479 5480 5482 5484 5486 5487 5489 5490 5492
5521 5520 5520 5519 5518 5518 5517 5517 5517 5517 5517 5517 5517 5517 5517 5517 5517 5517 5517 5517 5518 5518 5519 5519 5519 5519 5520 5520 5521 5522 5522 5523 5524 5524 5524 5524 5524 5524 5524 5524 5523 5523 5522 5522 5521 5520 5519 5518 5517 5516 5515 5513 5512 5510 5508 5506 5504 5501 5499 5496 5494 5491 5489 5485 5482 5479 5475 5472 5470 5469 5469 5469 5470 5471 5473 5474 5475 5477 5478 5480 5481 5483 5484 5486 5488 5489 5491
5518 5517 5517 5516 5515 5515 5515 5514 5514 5514 5514 5514 5514 5514 5514 5514 5514 5514 5514 5515 5515 5516 5517 5517 5517 5518 5518 5519 5519 5520 5521 5521 5522 5522 5523 5523 5523 5523 5522 5522 5522 5521 5521 5520 5520 5519 5518 5517 5516 5515 5514 5513 5511 5510 5508 5506 5504 5502 5499 5497 5494 5492 5490 5487 5484 5482 5479 5476 5474 5472 5471 5471 5471 5472 5473 5474 5475 5476 5478 5479 5480 5482 5484 5485 5487 5489 5491
5515 5514 5514 5513 5513 5512 5512 5512 5511 5511 5511 5511 5511 5511 5511 5512 5512 5512 5512 5513 5513 5514 5514 5515 5515 5516 5516 5516 5517 5518 5519 5519 5520 5520 5521 5521 5521 5521 5521 5521 5520 5520 5519 5519 5519 5518 5518 5517 5516 5515 5514 5513 5511 5510 5508 5507 5505 5502 5500 5497 5495 5493 5491 5489 5487 5484 5482 5480 5478 5477 5475 5475 5474 5474 5474 5475 5475 5476 5478 5479 5481 5483 5485 5486 5488 5490 5492
5511 5511 5511 5511 5510 5510 5509 5509 5509 5509 5509 5509 5509 5509 5509 5509 5509 5509 5510 5510 5511 5512 5512 5513 5513 5514 5514 5515 5515 5516 5517 5518 5518 5518 5519 5519 5519 5519 5519 5519 5519 5518 5518 5518 5518 5517 5516 5516 5515 5514 5513 5512 5511 5510 5509 5507 5505 5503 5501 5499 5497 5494 5492 5490 5488 5487 5485 5483 5482 5481 5480 5479 5478 5478 5478 5478 5478 5479 5481 5482 5484 5485 5486 5488 5490 5491 5493
5508 5508 5508 5508 5507 5507 5507 5507 5506 5506 5506 5506 5506 5506 5506 5507 5507 5507 5508 5508 5509 5509 5510 5511 5511 5512 5512 5513 5513 5514 5515 5515 5516 5516 5516 5517 5517 5517 5517 5517 5517 5517 5517 5516 5516 5516 5515 5515 5514 5513 5512 5512 5511 5510 5508 5507 5505 5504 5502 5500 5498 5496 5494 5492 5490 5489 5487 5486 5485 5484 5483 5482 5482 5482 5482 5482 5482 5483 5484 5485 5486 5487 5488 5489 5491 5492 5494
5505 5505 5505 5504 5504 5504 5504 5504 5504 5504 5503 5503 5503 5503 5503 5504 5504 5505 5505 5506 5506 5507 5508 5508 5509 5510 5510 5511 5511 5512 5512 5513 5513 5514 5514 5514 5515 5515 5516 5516 5516 5515 5515 5515 5515 5514 5514 5514 5513 5512 5512 5511 5510 5509 5508 5507 5506 5504 5503 5501 5500 5498 5496 5494 5492 5491 5489 5488 5487 5486 5485 5485 5484 5484 5484 5485 5485 5486 5486 5487 5487 5488 5489 5491 5492 5493 5494
5501 5501 5501 5501 5501 5501 5501 5501 5501 5501 5500 5500 5500 5500 5501 5501 5502 5502 5503 5503 5504 5505 5506 5506 5507 5507 5508 5508 5509 5510 5510 5511 5511 5512 5512 5512 5513 5513 5514 5514 5514 5514 5514 5513 5513 5513 5513 5512 5512 5511 5511 5510 5510 5509 5508 5507 5506 5504 5503 5502 5501 5499 5498 5496 5494 5493 5491 5490 5489 5488 5487 5487 5487 5487 5487 5487 5487 5487 5488 5488 5489 5490 5491 5492 5493 5494 5495
5497 5498 5498 5498 5498 5498 5498 5498 5498 5498 5497 5497 5497 5497 5498 5498 5499 5500 5500 5501 5502 5502 5503 5504 5505 5505 5506 5506 5507 5507 5508 5509 5509 5510 5510 5511 5511 5511 5512 5512 5512 5512 5512 5512 5512 5512 5511 5511 5511 5510 5510 5509 5509 5508 5507 5506 5505 5504 5503 5502 5501 5500 5499 5498 5496 5495 5494 5492 5491 5490 5489 5489 5488 5488 5488 5489 5489 5489 5489 5490 5490 5491 5492 5493 5493 5494 5496
5494 5494 5494 5494 5494 5494 5494 5494 5494 5494 5494 5494 5494 5494 5495 5496 5496 5497 5498 5498 5499 5500 5501 5502 5502 5503 5504 5504 5505 5505 5506 5507 5507 5508 5508 5509 5509 5510 5510 5510 5511 5511 5511 5511 5511 5510 5510 5510 5510 5509 5509 5508 5508 5507 5506 5506 5505 5504 5503 5503 5502 5501 5499 5499 5498 5496 5495 5494 5493 5492 5491 5491 5490 5489 5489 5489 5489 5490 5490 5490 5491 5491 5492 5493 5493 5494 5495
5491 5491 5491 5491 5491 5491 5491 5491 5491 5491 5491 5491 5491 5492 5492 5493 5493 5494 5495 5496 5496 5497 5498 5499 5500 5501 5501 5502 5503 5503 5504 5505 5505 5506 5507 5507 5508 5508 5508 5509 5509 5509 5509 5509 5509 5509 5509 5509 5508 5508 5508 5507 5507 5506 5506 5505 5504 5504 5503 5502 5502 5501 5500 5499 5498 5497 5496 5496 5495 5494 5493 5492 5492 5491 5490 5490 5490 5490 5490 5491 5491 5491 5492 5492 5493 5494 5494
5487 5487 5487 5487 5487 5488 5488 5487 5487 5487 5487 5488 5488 5489 5489 5490 5490 5491 5491 5492 5493 5494 5495 5496 5497 5498 5499 5500 5500 5501 5502 5502 5503 5504 5504 5505 5505 5506 5506 5507 5507 5507 5507 5508 5508 5508 5508 5508 5507 5507 5507 5506 5506 5505 5505 5504 5504 5503 5502 5502 5501 5501 5500 5499 5499 5498 5497 5496 5496 5495 5494 5494 5493 5492 5492 5492 5491 5491 5491 5491 5491 5491 5492 5492 5493 5493 5494
5484 5484 5484 5484 5484 5484 5484 5484 5484 5484 5484 5484 5485 5485 5486 5486 5487 5487 5488 5489 5490 5491 5492 5493 5494 5495 5496 5497 5498 5499 5499 5500 5501 5501 5502 5503 5503 5504 5504 5505 5505 5505 5506 5506 5506 5506 5506 5506 5506 5506 5505 5505 5505 5504 5504 5503 5503 5502 5502 5501 5501 5500 5500 5499 5498 5498 5497 5497 5496 5496 5495 5494 5494 5493 5493 5493 5492 5492 5492 5492 5491 5491 5492 5492 5492 5492 5493
5481 5481 5481 5481 5481 5481 5481 5481 5481 5481 5481 5481 5481 5482 5482 5483 5483 5483 5484 5485 5486 5488 5489 5490 5491 5492 5493 5494 5495 5496 5496 5497 5498 5499 5499 5500 5501 5501 5502 5502 5503 5503 5503 5504 5504 5504 5504 5504 5504 5504 5504 5504 5503 5503 5503 5502 5502 5502 5501 5501 5500 5500 5499 5499 5498 5497 5497 5496 5496 5495 5495 5495 5494 5494 5494 5493 5493 5493 5493 5492 5492 5492 5492 5492 5492 5492 5493
5478 5478 5478 5478 5478 5478 5478 5477 5477 5477 5477 5477 5477 5478 5478 5479 5479 5479 5480 5481 5482 5483 5484 5485 5487 5488 5489 5490 5491 5492 5493 5494 5495 5496 5496 5497 5498 5498 5499 5499 5500 5500 5501 5501 5501 5502 5502 5502 5502 5502 5502 5502 5502 5502 5501 5501 5501 5500 5500 5500 5499 5499 5498 5498 5497 5497 5496 5496 5495 5495 5494 5494 5493 5493 5493 5493 5493 5493 5493 5492 5492 5492 5492 5493 5493 5493 5493